Location: Dziadowski
(50.3833°N, 20.0333°E)
Time: 18:46:02
(UTC+00:00)

Cosmos 2082 Rocket - Pass Details

Date: 18 January 2026
Orbit: 831 x 853 km, 71.0° (Epoch: 18 February)

Event Time Altitude Azimuth Distance (km) Brightness Sun altitude
Exits shadow 02:30:12 25° 41° (NE) 1,646 4.0 -37.8°
Maximum altitude 02:30:14 25° 41° (NE) 1,646 4.0 -37.8°
Drops below altitude 10° 02:34:52 10° 96° (E) 2,474 5.3 -37.1°
Sets 02:37:45 0° 109° (ESE) 3,410 6.1 -36.6°
